Tracking 25734 objects as of 26-May-2022
HD Live streaming from Space Station
objects crossing your sky now

SL-16 DEB

Track SL-16 DEB now!
10-day predictions


NORAD ID: 39881
Int'l Code: 1993-016BF
Perigee: 804.9 km
Apogee: 998.4 km
Inclination: 71.0 °
Period: 102.9 minutes
Semi major axis: 7272 km
RCS: 0.0064 m2 (small)
Launch date: March 26, 1993
Source: Commonwealth of Independent States (former USSR) (CIS)
Launch site: TYURATAM MISSILE AND SPACE COMPLEX (TTMTR)

Note: This is SATELLITE DEBRIS
aabbcc
Your satellite tracking list
Your tracking list is empty




NASA's NSSDC Master Catalog

Two Line Element Set (TLE):
1 39881U 93016BF  22144.49836759  .00002696  00000-0  17318-2 0  9997
2 39881  70.9920  54.2552 0133055  39.6838 321.3920 13.99798479888904
Source of the keplerian elements: AFSPC